• In Hungary
  • List of Countries
  • For 7 days
  • Water Temperature
  • Satellite Maps
  • Weather Map
  • News
  • Weather Widgets
  • user-avatar
    Login

    Hourly Weather Sarafovo

    Today, 21 October, Saturday

    Time Temperature Precipitation Wind Pressure Humidity
    00:00 +19°C° 0 mm 1 mps 760 mmHg 49%
    01:00 +19°C° 0 mm 1 mps 760 mmHg 50%
    02:00 +18°C° 0 mm 1 mps 759 mmHg 53%
    03:00 +18°C° 0 mm 1 mps 759 mmHg 54%
    04:00 +18°C° 0 mm 1 mps 759 mmHg 55%
    05:00 +16°C° 0 mm 1 mps 759 mmHg 56%
    06:00 +18°C° 0 mm 1 mps 759 mmHg 54%
    07:00 +19°C° 0 mm 1 mps 759 mmHg 53%
    08:00 +19°C° 0 mm 2 mps 759 mmHg 50%
    09:00 +21°C° 0 mm 2 mps 759 mmHg 45%
    10:00 +24°C° 0 mm 1 mps 759 mmHg 39%
    11:00 +26°C° 0 mm 1 mps 759 mmHg 34%
    12:00 +27°C° 0 mm 1 mps 759 mmHg 31%
    13:00 +27°C° 0 mm 1 mps 759 mmHg 29%
    14:00 +28°C° 0 mm 1 mps 758 mmHg 26%
    15:00 +27°C° 0 mm 1 mps 758 mmHg 30%
    16:00 +25°C° 0 mm 1 mps 758 mmHg 34%
    17:00 +24°C° 0 mm 2 mps 758 mmHg 38%
    18:00 +23°C° 0 mm 2 mps 758 mmHg 40%
    19:00 +22°C° 0 mm 1 mps 758 mmHg 42%
    20:00 +20°C° 0 mm 1 mps 758 mmHg 44%
    21:00 +20°C° 0 mm 1 mps 758 mmHg 45%
    22:00 +20°C° 0 mm 1 mps 757 mmHg 45%
    23:00 +18°C° 0 mm 2 mps 757 mmHg 45%

    Tomorrow, 22 October, Sunday

    Time Temperature Precipitation Wind Pressure Humidity
    00:00 +18°C° 0 mm 2 mps 757 mmHg 46%
    01:00 +18°C° 0 mm 2 mps 757 mmHg 47%
    02:00 +17°C° 0 mm 2 mps 757 mmHg 47%
    03:00 +17°C° 0 mm 2 mps 756 mmHg 49%
    04:00 +17°C° 0 mm 2 mps 756 mmHg 51%
    05:00 +17°C° 0 mm 3 mps 756 mmHg 53%
    06:00 +17°C° 0 mm 3 mps 756 mmHg 53%
    07:00 +17°C° 0 mm 3 mps 757 mmHg 54%
    08:00 +18°C° 0 mm 4 mps 757 mmHg 54%
    09:00 +19°C° 0 mm 4 mps 757 mmHg 50%
    10:00 +21°C° 0 mm 4 mps 758 mmHg 46%
    11:00 +22°C° 0 mm 4 mps 758 mmHg 41%
    12:00 +22°C° 0 mm 4 mps 758 mmHg 40%
    13:00 +24°C° 0 mm 3 mps 758 mmHg 39%
    14:00 +24°C° 0 mm 3 mps 758 mmHg 38%
    15:00 +22°C° 0 mm 3 mps 758 mmHg 43%
    16:00 +21°C° 0 mm 3 mps 758 mmHg 48%
    17:00 +20°C° 0 mm 3 mps 758 mmHg 53%
    18:00 +18°C° 0 mm 3 mps 758 mmHg 60%
    19:00 +17°C° 0 mm 3 mps 758 mmHg 67%
    20:00 +16°C° 0 mm 3 mps 758 mmHg 73%
    21:00 +16°C° 0 mm 3 mps 758 mmHg 76%
    22:00 +14°C° 0 mm 3 mps 758 mmHg 79%
    23:00 +14°C° 0 mm 4 mps 758 mmHg 82%

    Day after tomorrow, 23 October, Monday

    Time Temperature Precipitation Wind Pressure Humidity
    00:00 +14°C° 0 mm 4 mps 758 mmHg 84%
    01:00 +14°C° 0 mm 4 mps 758 mmHg 87%
    02:00 +13°C° 0 mm 4 mps 758 mmHg 89%
    03:00 +13°C° 0 mm 4 mps 757 mmHg 90%
    04:00 +13°C° 0 mm 4 mps 757 mmHg 92%
    05:00 +13°C° 0 mm 4 mps 756 mmHg 93%
    06:00 +14°C° 0 mm 4 mps 756 mmHg 90%
    07:00 +14°C° 0 mm 4 mps 756 mmHg 87%
    08:00 +15°C° 0 mm 5 mps 755 mmHg 85%
    09:00 +16°C° 0 mm 5 mps 755 mmHg 79%
    10:00 +17°C° 0 mm 5 mps 755 mmHg 73%
    11:00 +19°C° 0 mm 5 mps 754 mmHg 68%
    12:00 +19°C° 0 mm 5 mps 754 mmHg 67%
    13:00 +20°C° 0 mm 5 mps 753 mmHg 66%
    14:00 +20°C° 0 mm 6 mps 753 mmHg 65%
    15:00 +19°C° 0 mm 6 mps 752 mmHg 69%
    16:00 +19°C° 0 mm 5 mps 752 mmHg 73%
    17:00 +17°C° 0 mm 5 mps 752 mmHg 77%
    18:00 +17°C° 0 mm 5 mps 751 mmHg 80%
    19:00 +16°C° 0 mm 5 mps 751 mmHg 83%
    20:00 +16°C° 0 mm 5 mps 751 mmHg 86%
    21:00 +16°C° 0 mm 5 mps 751 mmHg 87%
    22:00 +16°C° 0 mm 5 mps 751 mmHg 88%
    23:00 +16°C° 0 mm 5 mps 751 mmHg 89%

    24 October, Tuesday

    Time Temperature Precipitation Wind Pressure Humidity
    00:00 +16°C° 0 mm 6 mps 751 mmHg 89%
    01:00 +16°C° 0 mm 6 mps 750 mmHg 89%
    02:00 +16°C° 0 mm 6 mps 750 mmHg 88%
    03:00 +16°C° 0.4 mm 6 mps 750 mmHg 88%
    04:00 +16°C° 0.4 mm 6 mps 750 mmHg 88%
    05:00 +16°C° 0.4 mm 6 mps 750 mmHg 88%
    06:00 +16°C° 1.5 mm 6 mps 750 mmHg 87%
    07:00 +16°C° 1.5 mm 6 mps 750 mmHg 85%
    08:00 +16°C° 1.5 mm 5 mps 750 mmHg 83%
    09:00 +17°C° 0.4 mm 6 mps 750 mmHg 78%
    10:00 +19°C° 0.4 mm 6 mps 751 mmHg 73%
    11:00 +20°C° 0.4 mm 6 mps 751 mmHg 68%
    12:00 +20°C° 0.3 mm 7 mps 751 mmHg 65%
    13:00 +21°C° 0.3 mm 7 mps 751 mmHg 62%
    14:00 +22°C° 0.3 mm 7 mps 751 mmHg 60%
    15:00 +21°C° 0.5 mm 7 mps 751 mmHg 66%
    16:00 +20°C° 0.5 mm 7 mps 751 mmHg 72%
    17:00 +18°C° 0.5 mm 8 mps 752 mmHg 79%
    18:00 +17°C° 0.5 mm 8 mps 752 mmHg 81%
    19:00 +17°C° 0.5 mm 8 mps 752 mmHg 83%
    20:00 +17°C° 0.5 mm 8 mps 753 mmHg 85%
    21:00 +16°C° 1.5 mm 9 mps 753 mmHg 86%
    22:00 +16°C° 1.5 mm 9 mps 754 mmHg 86%
    23:00 +16°C° 1.5 mm 10 mps 754 mmHg 87%

    25 October, Wednesday

    Time Temperature Precipitation Wind Pressure Humidity
    00:00 +14°C° 0.8 mm 10 mps 754 mmHg 87%
    01:00 +14°C° 0.8 mm 10 mps 754 mmHg 86%
    02:00 +14°C° 0.8 mm 10 mps 754 mmHg 86%
    03:00 +13°C° 0.5 mm 10 mps 754 mmHg 85%
    04:00 +13°C° 0.5 mm 11 mps 755 mmHg 84%
    05:00 +13°C° 0.5 mm 11 mps 755 mmHg 84%
    06:00 +12°C° 0.6 mm 11 mps 755 mmHg 83%
    07:00 +11°C° 0.6 mm 11 mps 756 mmHg 83%
    08:00 +11°C° 0.6 mm 11 mps 756 mmHg 83%
    09:00 +9°C° 0.6 mm 11 mps 757 mmHg 81%
    10:00 +8°C° 0.6 mm 12 mps 757 mmHg 79%
    11:00 +7°C° 0.6 mm 12 mps 758 mmHg 78%
    12:00 +5°C° 0.9 mm 12 mps 758 mmHg 78%
    13:00 +5°C° 0.9 mm 12 mps 758 mmHg 78%
    14:00 +4°C° 0.9 mm 12 mps 759 mmHg 79%
    15:00 +4°C° 2.5 mm 11 mps 759 mmHg 80%
    16:00 +3°C° 2.5 mm 10 mps 760 mmHg 81%
    17:00 +3°C° 2.5 mm 9 mps 760 mmHg 82%
    18:00 +3°C° 1.9 mm 10 mps 761 mmHg 83%
    19:00 +3°C° 1.9 mm 10 mps 762 mmHg 83%
    20:00 +2°C° 1.9 mm 10 mps 762 mmHg 83%
    21:00 +2°C° 0.4 mm 10 mps 763 mmHg 83%
    22:00 +2°C° 0.4 mm 10 mps 763 mmHg 82%
    23:00 +2°C° 0.4 mm 10 mps 763 mmHg 82%

    26 October, Thursday

    Time Temperature Precipitation Wind Pressure Humidity
    00:00 +2°C° 0.2 mm 10 mps 763 mmHg 82%
    01:00 +2°C° 0.2 mm 9 mps 764 mmHg 81%
    02:00 +2°C° 0.2 mm 9 mps 764 mmHg 81%
    03:00 +2°C° 0 mm 9 mps 764 mmHg 80%
    04:00 +1°C° 0 mm 9 mps 765 mmHg 80%
    05:00 +1°C° 0 mm 9 mps 765 mmHg 79%
    06:00 +1°C° 0 mm 9 mps 765 mmHg 78%
    07:00 +1°C° 0 mm 9 mps 766 mmHg 76%
    08:00 +1°C° 0 mm 9 mps 766 mmHg 74%
    09:00 +2°C° 0 mm 8 mps 767 mmHg 71%
    10:00 +4°C° 0 mm 8 mps 767 mmHg 67%
    11:00 +5°C° 0 mm 8 mps 768 mmHg 63%
    12:00 +5°C° 0 mm 8 mps 767 mmHg 61%
    13:00 +6°C° 0 mm 8 mps 767 mmHg 58%
    14:00 +8°C° 0 mm 7 mps 767 mmHg 55%
    15:00 +6°C° 0 mm 7 mps 767 mmHg 57%
    16:00 +7°C° 0 mm 6 mps 768 mmHg 58%
    17:00 +5°C° 0 mm 6 mps 768 mmHg 59%
    18:00 +5°C° 0 mm 6 mps 768 mmHg 61%
    19:00 +5°C° 0 mm 5 mps 768 mmHg 62%
    20:00 +3°C° 0 mm 5 mps 768 mmHg 64%
    21:00 +3°C° 0 mm 5 mps 768 mmHg 64%
    22:00 +4°C° 0 mm 4 mps 769 mmHg 65%
    23:00 +4°C° 0 mm 4 mps 769 mmHg 65%
    Show more